STARLINK-35786 (67040 NORAD) Tracking and Keplerian Element Data

This shows tracking and keplerian element data for the satellite.

Feedback or suggestion? Click here.




ElementValue
Catalog67040
NameSTARLINK-35786
Epoch Orbit132
Epoch Day354.25003472
Epoch Year2025
RAAN136.2497
Inclination43
Eccentricity0.0001743
Argument of Perigee258.7312
Mean Anonmoly344.9355
Mean Motion15.88856251
Decay Rate-0.01373416
L11 67040U 25294L 25354.25003472 -.01373416 00000+0 -53365-2 0 9991
L22 67040 43.0000 136.2497 0001743 258.7312 344.9355 15.88856251 1329



Live tracking and technical data element details for STARLINK-35786 (NORAD 67040). STARLINK-35786 can be tracked NOW for your location showing map with azimuth and elevation plus other details from your city location.







IsCatalogInMostPopularTable: catalog: 67040, numindb: 99
Update: records affected: 1



GetName: 67040 STARLINK-35786

Hit Count: updated at: Thu, 21 May 2026 12:02:40 GMT